Weather History for KSPB - November, 2012

Change the Weather History Date:

Thursday, November 29, 2012

  Actual Average Record
Temperature  
Mean Temperature 44 °F -  
Max Temperature 50 °F - 55 °F (1999)
Min Temperature 38 °F - 26 °F (2006)
Degree Days  
Heating Degree Days 21    
Month to date heating degree days 546  
Since 1 July heating degree days 1072  
Cooling Degree Days 0    
Month to date cooling degree days 0  
Year to date cooling degree days 245  
Moisture  
Dew Point 40 °F    
Average Humidity 86    
Maximum Humidity 96    
Minimum Humidity 76    
Precipitation  
Precipitation 0.41 in - 0.66 in (2005)
Month to date precipitation 8.03  
Year to date precipitation 44.99  
Sea Level Pressure  
Sea Level Pressure 29.59 in    
Wind  
Wind Speed 4 mph (South)    
Max Wind Speed 15 mph    
Max Gust Speed 21 mph    
Visibility 9 miles    
Events Rain    
T = Trace of Precipitation, MM = Missing Value Source: NWS Daily Summary

Daily Weather History Graph

Daily Weather History Graph

Search for Another Location

Airport or City:

Trip Planner

Search our weather history database for the weather conditions in past years. The results will help you decide how hot, cold, wet, or windy it might be!

Date:

Astronomy

Nov. 29, 2012 Rise Set
Actual Time 7:30 AM PST 4:29 PM PST
Civil Twilight 6:56 AM PST 5:02 PM PST
Nautical Twilight 6:19 AM PST 5:40 PM PST
Astronomical Twilight 5:43 AM PST 6:15 PM PST
Moon 5:36 PM PST (11/29) 8:21 AM PST (11/29)
Length of Visible Light 10h 06m
Length of Day
8h 58m
Full, 99% of the Moon is Illuminated
Nov 29
Full
Dec 6
Last Quarter
Dec 13
New
Dec 19
First Quarter
Dec 28
Full

Hourly Weather History & Observations

Time (PST) Temp. Windchill Dew Point Humidity Pressure Visibility Wind Dir Wind Speed Gust Speed Precip Events Conditions
12:53 AM 39.9 °F 36.7 °F 35.1 °F 83% 29.70 in 10.0 mi SSW 4.6 mph - N/A   Clear
1:53 AM 39.0 °F 36.8 °F 35.1 °F 86% 29.68 in 10.0 mi West 3.5 mph - N/A   Partly Cloudy
2:53 AM 39.0 °F 36.8 °F 37.0 °F 93% 29.67 in 10.0 mi SW 3.5 mph - N/A   Mostly Cloudy
3:53 AM 41.0 °F - 37.0 °F 86% 29.63 in 10.0 mi Calm Calm - 0.00 in Rain Light Rain
4:53 AM 43.0 °F 41.3 °F 36.0 °F 76% 29.60 in 10.0 mi Variable 3.5 mph - 0.00 in Rain Light Rain
5:53 AM 43.0 °F 39.5 °F 37.0 °F 80% 29.60 in 10.0 mi SSW 5.8 mph - 0.00 in Rain Light Rain
6:53 AM 44.1 °F 40.1 °F 37.0 °F 76% 29.59 in 10.0 mi SSW 6.9 mph - 0.01 in Rain Light Rain
8:53 AM 43.0 °F 39.5 °F 39.0 °F 86% 29.65 in 10.0 mi South 5.8 mph - 0.03 in Rain Light Rain
9:53 AM 44.1 °F 41.5 °F 42.1 °F 93% 29.65 in 10.0 mi East 4.6 mph - 0.05 in   Overcast
10:01 AM 46.4 °F 42.9 °F 42.8 °F 87% 29.65 in 10.0 mi East 6.9 mph - N/A   Overcast
10:53 AM 48.9 °F - 45.0 °F 86% 29.65 in 10.0 mi ESE 11.5 mph - N/A   Overcast
11:53 AM 48.9 °F - 45.0 °F 86% 29.65 in 10.0 mi ESE 6.9 mph - 0.01 in   Overcast
12:53 PM 46.0 °F 44.8 °F 41.0 °F 83% 29.62 in 10.0 mi South 3.5 mph - N/A   Overcast
1:53 PM 46.9 °F - 41.0 °F 80% 29.62 in 10.0 mi South 3.5 mph - N/A   Overcast
2:53 PM 46.0 °F 43.9 °F 39.9 °F 79% 29.60 in 10.0 mi SSW 4.6 mph - 0.00 in   Overcast
3:53 PM 45.0 °F 42.6 °F 39.9 °F 82% 29.59 in 7.0 mi South 4.6 mph - 0.02 in Rain Light Rain
4:53 PM 44.1 °F - 41.0 °F 89% 29.59 in 8.0 mi Calm Calm - 0.06 in Rain Light Rain
5:18 PM 42.8 °F - 41.0 °F 93% 29.58 in 7.0 mi Calm Calm - 0.01 in Rain Light Rain
5:42 PM 42.8 °F 40.1 °F 41.0 °F 93% 29.58 in 8.0 mi WSW 4.6 mph - 0.01 in Rain Light Rain
5:53 PM 43.0 °F 41.3 °F 41.0 °F 93% 29.57 in 7.0 mi SSW 3.5 mph - 0.02 in Rain Light Rain
6:02 PM 42.8 °F 40.1 °F 41.0 °F 93% 29.57 in 9.0 mi SSW 4.6 mph - 0.00 in Rain Light Rain
6:11 PM 42.8 °F 41.1 °F 41.0 °F 93% 29.57 in 8.0 mi South 3.5 mph - 0.00 in   Overcast
6:53 PM 43.0 °F - 42.1 °F 97% 29.54 in 7.0 mi Calm Calm - 0.00 in Rain Light Rain
7:26 PM 44.6 °F - 42.8 °F 93% 29.54 in 10.0 mi Calm Calm - 0.00 in   Overcast
7:53 PM 43.0 °F - 42.1 °F 97% 29.53 in 8.0 mi Calm Calm - 0.01 in   Overcast
8:53 PM 43.0 °F 41.3 °F 41.0 °F 93% 29.53 in 5.0 mi South 3.5 mph - 0.02 in Rain Rain
9:53 PM 43.0 °F - 41.0 °F 93% 29.52 in 5.0 mi Calm Calm - 0.09 in Rain Light Rain
10:01 PM 42.8 °F - 41.0 °F 93% 29.52 in 4.0 mi Calm Calm - 0.02 in Rain Rain
10:48 PM 42.8 °F - 41.0 °F 93% 29.50 in 10.0 mi Calm Calm - 0.06 in   Overcast
10:53 PM 43.0 °F - 42.1 °F 97% 29.50 in 10.0 mi Calm Calm - 0.06 in   Overcast
11:00 PM 42.8 °F - 41.0 °F 93% 29.50 in 10.0 mi Calm Calm - N/A   Overcast
11:53 PM 43.0 °F - 42.1 °F 97% 29.49 in 10.0 mi Calm Calm - 0.00 in   Overcast